CST,Max TemperatureF,Mean TemperatureF,Min TemperatureF,Max Dew PointF,MeanDew PointF,Min DewpointF,Max Humidity, Mean Humidity, Min Humidity, Max Sea Level PressureIn, Mean Sea Level PressureIn, Min Sea Level PressureIn, Max VisibilityMiles, Mean VisibilityMiles, Min VisibilityMiles, Max Wind SpeedMPH, Mean Wind SpeedMPH, Max Gust SpeedMPH,PrecipitationIn, CloudCover, Events, WindDirDegrees
2012-12-1,69,63,57,54,52,46,72,65,56,30.10,30.02,29.95,10,10,10,14,7,25,0.00,4,,163
2012-12-2,77,68,60,57,55,54,77,65,47,30.08,30.02,29.99,10,10,10,14,7,21,0.00,2,,191
2012-12-3,75,68,62,55,54,52,77,63,44,30.01,29.97,29.90,10,10,10,16,9,28,0.00,2,,178
2012-12-4,64,50,37,55,45,30,88,71,48,30.31,30.14,29.97,10,10,5,12,5,18,0.75,4,Thunderstorm,352
2012-12-5,60,45,30,36,31,25,81,60,31,30.34,30.23,30.10,10,10,1,9,1,,0.00,0,,114
2012-12-6,64,50,37,46,38,30,81,68,48,30.10,29.97,29.87,10,10,10,6,1,,0.00,4,,141
2012-12-7,62,53,44,48,46,39,87,74,55,29.89,29.86,29.80,10,8,0,8,1,,0.00,6,,212
2012-12-8,57,52,46,48,46,41,87,77,67,29.94,29.88,29.84,10,6,0,6,2,,0.00,6,,71
2012-12-9,60,51,42,55,46,30,88,77,61,29.93,29.81,29.73,10,5,0,14,6,23,0.12,8,Thunderstorm,17
2012-12-10,39,31,21,27,17,14,80,59,51,30.09,30.01,29.94,10,10,10,16,10,24,0.00,2,,305
2012-12-11,46,30,15,19,14,9,80,56,23,30.23,30.14,30.08,10,10,5,7,2,,0.00,0,,202
2012-12-12,53,36,19,21,15,12,86,54,19,30.34,30.27,30.22,10,10,2,9,1,,0.00,0,,148
2012-12-13,57,40,23,25,19,16,74,44,23,30.31,30.25,30.19,10,10,10,9,3,,0.00,0,,145
2012-12-14,57,42,26,37,25,18,75,53,26,30.20,30.11,29.91,10,10,7,9,2,,0.00,1,,141
2012-12-15,68,58,46,46,38,34,82,54,30,29.89,29.77,29.69,10,10,9,18,7,29,0.01,3,,190
2012-12-16,60,50,41,39,34,32,76,60,41,29.76,29.70,29.63,10,10,10,7,1,,0.00,0,,173
2012-12-17,51,42,33,36,33,27,87,67,50,29.84,29.73,29.65,10,9,3,13,4,18,0.00,3,,306
2012-12-18,66,45,24,36,29,19,86,61,26,29.85,29.79,29.72,10,8,3,12,2,16,0.00,0,,197
2012-12-19,62,48,33,54,41,28,82,75,62,29.87,29.74,29.47,10,10,7,12,3,18,0.26,4,Thunderstorm,128
2012-12-20,57,44,32,50,26,12,82,55,39,30.21,29.83,29.43,10,10,10,40,18,50,0.44,4,,277
2012-12-21,48,38,26,18,14,10,69,42,27,30.35,30.29,30.21,10,10,10,14,8,21,0.00,0,,299
2012-12-22,64,42,19,28,18,10,80,45,13,30.27,30.13,30.00,10,10,10,10,1,16,0.00,0,,166
2012-12-23,62,50,37,45,35,19,82,54,34,30.00,29.89,29.80,10,10,10,13,2,16,0.00,1,,210
2012-12-24,50,42,32,43,27,19,76,60,46,30.01,29.93,29.78,10,10,7,14,7,17,0.00,0,,328
2012-12-25,33,28,24,23,19,16,75,65,56,30.10,29.97,29.86,10,8,1,21,11,33,0.00,5,,26
2012-12-26,37,32,26,19,17,16,69,59,45,30.17,30.06,29.90,10,10,7,17,12,34,0.00,3,,331
2012-12-27,37,29,21,23,20,14,80,63,52,30.16,30.06,30.00,10,10,10,9,3,16,0.00,1,,137
2012-12-28,35,32,30,30,26,21,81,75,64,30.01,29.95,29.87,10,8,2,14,4,23,0.02,8,,332
2012-12-29,35,30,24,19,15,12,64,55,44,30.39,30.24,30.01,10,10,10,16,10,25,0.00,3,,290
2012-12-30,44,30,17,19,16,10,74,55,34,30.46,30.37,30.26,10,10,7,8,3,,0.00,0,,173
2012-12-31,37,35,33,30,28,19,81,77,52,30.26,30.12,30.01,10,5,2,7,4,,0.26,7,,107